Home   Weather   Germany   Recklinghausen   Past weeks
Flag for Germany

Past Weather in Recklinghausen, North Rhine-Westphalia, Germany — Yesterday and Last 2 Weeks

Currently: 77 °F. Clear. (Weather station: Dortmund / Wickede, Germany). See more current weather

Past Weather in Recklinghausen — Graph

°F

Recklinghausen Temperature Yesterday

Maximum temperature yesterday: 84 °F (at 3:20 pm)
Minimum temperature yesterday: 55 °F (at 5:50 am)
Average temperature yesterday: 73 °F

High & Low Weather Summary for the Past Weeks

 TemperatureHumidityPressure
High93 °F (Aug 4, 11:50 am)100% (Aug 1, 2:50 am)30.36 "Hg (Aug 1, 2:50 am)
Low46 °F (Aug 6, 5:50 am)24% (Aug 11, 4:50 pm)29.89 "Hg (Aug 4, 5:20 am)
Average69 °F60%30.11 "Hg
* Reported Jul 27 8:20 pm — Aug 11 8:20 pm, Recklinghausen. Weather by CustomWeather, © 2022

Note: Actual official high and low records may vary slightly from our data, if they occured in-between our weather recording intervals... More about our weather records

Recklinghausen Weather History for the Previous 24 Hours

Scroll right to see more
 ConditionsComfort  
Time TempWeatherWind HumidityBarometerVisibility
8:20 pm
Thu, Aug 11
82 °FSunny.7 mph28%30.09 "Hg10 mi
7:50 pm84 °FSunny.9 mph27%30.09 "Hg10 mi
7:20 pm84 °FSunny.10 mph27%30.09 "Hg10 mi
6:50 pm84 °FSunny.12 mph27%30.09 "Hg10 mi
6:20 pm86 °FPassing clouds.8 mph25%30.09 "HgN/A
5:50 pm86 °FPassing clouds.9 mph25%30.12 "HgN/A
5:20 pm86 °FSunny.12 mph25%30.12 "Hg10 mi
4:50 pm86 °FPassing clouds.9 mph24%30.12 "HgN/A
4:20 pm86 °FPassing clouds.10 mph25%30.12 "HgN/A
2:50 pm86 °FPassing clouds.9 mph25%30.15 "HgN/A
2:20 pm86 °FSunny.6 mph27%30.15 "Hg10 mi
1:50 pm84 °FPassing clouds.7 mph27%30.15 "HgN/A
1:20 pm86 °FPassing clouds.9 mph27%30.18 "HgN/A
12:50 pm82 °FSunny.7 mph30%30.18 "Hg10 mi
12:20 pm82 °FPassing clouds.10 mph28%30.18 "HgN/A
11:50 am81 °FSunny.6 mph30%30.18 "Hg10 mi
11:20 am81 °FPassing clouds.6 mph39%30.21 "HgN/A
10:50 am79 °FPassing clouds.6 mph42%30.21 "HgN/A
10:20 am77 °FPassing clouds.5 mph44%30.21 "HgN/A
9:50 am75 °FPassing clouds.3 mph47%30.21 "HgN/A
8:50 am70 °FSunny.2 mph57%30.21 "Hg10 mi
8:20 am66 °FPassing clouds.3 mph64%30.21 "HgN/A
7:50 am64 °FSunny.2 mph60%30.21 "Hg10 mi
7:20 am63 °FSunny.3 mph64%30.21 "Hg10 mi
6:20 am61 °FSunny.2 mph63%30.21 "Hg10 mi
5:50 am59 °FClear.No wind72%30.21 "Hg10 mi
5:20 am61 °FClear.No wind68%30.21 "Hg10 mi
4:50 am59 °FClear.1 mph72%30.21 "HgN/A
4:20 am59 °FClear.No wind68%30.21 "HgN/A
3:50 am59 °FClear.No wind68%30.21 "HgN/A
3:20 am63 °FClear.3 mph59%30.21 "HgN/A
2:50 am64 °FClear.3 mph56%30.21 "HgN/A
1:20 am68 °FClear.3 mph53%30.21 "HgN/A
12:50 am66 °FClear.No wind52%30.21 "HgN/A
12:20 am66 °FClear.5 mph52%30.21 "HgN/A
11:50 pm
Wed, Aug 10
70 °FClear.5 mph46%30.21 "HgN/A
11:20 pm70 °FClear.6 mph46%30.21 "HgN/A
10:50 pm72 °FClear.7 mph44%30.21 "Hg10 mi
10:20 pm72 °FClear.6 mph44%30.21 "Hg10 mi
9:20 pm75 °FClear.6 mph39%30.21 "Hg10 mi
Weather by CustomWeather, © 2022

See weather overview